[[{"header":{"parameterUnit":"m.s-1","parameterCategory":1,"la1":30.2991,"la2":30.254,"lo1":-89.0895,"lo2":-89.0444,"dy":0.0017,"dx":0.0017,"nx":28,"ny":28,"refTime":"2024-05-16T09:00:00:Z","depth":0,"parameterNumber":2,"parameterNumberName":"U-component_of_WINDS"},"data":[0,0,0,0,0,0,0,0,0,0,0,0,0,0,0,0,0,0,0,0,0,0,0,0,0,0,0,0,0,0,0,0,0,0,0,0,0,0,0,0,0,0,0,0,0,0,0,0,0,0,0,0,0,0,0,0,0,0,0.3467,0.3467,0,0.3423,0.3423,0.3422,0.3397,0.3397,0.3397,0.3397,0.3351,0.3349,0.3348,0,0,0,0,0,0,0,0,0,0,0,0,0,0.3528,0.3527,0.3467,0.3467,0.3466,0.3423,0.3423,0.3422,0.3397,0.3397,0.3397,0.3397,0.3351,0.335,0.3348,0,0,0,0,0,0,0,0,0,0,0,0,0,0.3495,0.3527,0.3468,0.3449,0.3447,0.3424,0.3423,0.3422,0.3397,0.3397,0.3397,0.3397,0.3351,0.335,0.3348,0.334,0,0,0.3343,0.3342,0,0,0,0,0,0,0,0,0.3496,0.3492,0.3452,0.345,0.3448,0.3416,0.3427,0.3394,0.3397,0.3416,0.3397,0.3397,0.3372,0.3369,0.3361,0.3338,0.3336,0.3343,0.3341,0.3341,0.334,0,0,0,0,0,0,0,0.3499,0.3494,0.345,0.3452,0.3449,0.3442,0.3437,0.3421,0.3395,0.3414,0.3412,0.3408,0.3371,0.3363,0.3359,0.3335,0.3343,0.3341,0.334,0.3339,0.3302,0.3302,0,0,0,0,0,0,0.3504,0.3496,0.3451,0.3449,0.3472,0.3441,0.3435,0.3426,0.3395,0.3391,0.3408,0.3407,0.3366,0.3362,0.3358,0.3345,0.3341,0.3339,0.3338,0.3302,0.3302,0.3302,0,0,0,0,0,0,0.3506,0.3501,0.3453,0.3472,0.3465,0.344,0.343,0.3425,0.3417,0.3391,0.3386,0.3404,0.3365,0.336,0.3344,0.3343,0.3338,0.3337,0.3302,0.3302,0.3302,0.3321,0,0,0,0,0,0,0.3508,0.3501,0.3498,0.3472,0.3464,0.3441,0.343,0.3424,0.3414,0.3412,0.3386,0.3381,0.3365,0.3347,0.3343,0.3341,0.3335,0.3301,0.3302,0.3302,0.332,0.3322,0.3323,0,0,0,0,0,0.351,0.3506,0.3498,0.3493,0.346,0.3441,0.3437,0.3418,0.3414,0.341,0.3393,0.3382,0.3344,0.3346,0.334,0.3338,0.3301,0.3302,0.3302,0.332,0.3322,0.3323,0,0,0,0,0,0,0.3532,0.3502,0.3494,0.3481,0.3464,0.3437,0.3432,0.3421,0.3404,0.3403,0.3381,0.3375,0.3361,0.3348,0.335,0.3328,0.3322,0.3321,0.3337,0.3339,0.334,0.3343,0.3334,0,0,0,0,0,0.3536,0.3523,0.3497,0.3488,0.348,0.3458,0.3448,0.3436,0.3417,0.341,0.3392,0.3373,0.3357,0.3347,0.3331,0.3318,0.3312,0.3314,0.3316,0.3317,0.3316,0.3307,0.3308,0.3302,0.3302,0.3302,0,0,0.3543,0.3524,0.3518,0.3492,0.3477,0.3464,0.3452,0.3438,0.3428,0.3407,0.3391,0.3377,0.3355,0.3341,0.3334,0.333,0.3316,0.3317,0.3318,0.3317,0.3308,0.3308,0.3309,0.3302,0.3302,0.3302,0,0,0.3548,0.3534,0.3524,0.351,0.3488,0.3473,0.3471,0.3445,0.3435,0.3419,0.3403,0.339,0.3363,0.3348,0.3337,0.3336,0.3325,0.3332,0.3338,0.333,0.3331,0.3331,0.333,0.333,0.3331,0.3331,0.3331,0,0.3559,0.3539,0.3521,0.3508,0.3497,0.3478,0.3468,0.3455,0.3428,0.3421,0.3417,0.3382,0.3366,0.3347,0.3347,0.3339,0.3335,0.3334,0.3332,0.3332,0.3332,0.3331,0.3331,0.3332,0.3332,0.3332,0.3332,0,0.3554,0.354,0.3535,0.3511,0.3499,0.3487,0.3466,0.3456,0.3445,0.343,0.3413,0.3393,0.3372,0.3367,0.3355,0.3346,0.3344,0.3337,0.3329,0.3334,0.3332,0.3332,0.3333,0.3333,0.3333,0.3333,0,0,0.3572,0.3537,0.3536,0.3524,0.3498,0.3487,0.3474,0.3454,0.3446,0.3428,0.3417,0.3394,0.3387,0.3374,0.336,0.3353,0.3353,0.3346,0.3345,0.3348,0.3341,0.3347,0.3346,0.3345,0.3345,0.3345,0.3342,0,0.3574,0.3551,0.3533,0.3517,0.3504,0.3485,0.3474,0.3457,0.3442,0.3428,0.3412,0.3396,0.3388,0.338,0.3372,0.3355,0.3351,0.3355,0.3334,0.3333,0.3339,0.3346,0.3352,0.335,0.3342,0.3342,0.3342,0,0.3572,0.3556,0.3538,0.3513,0.3507,0.3497,0.3477,0.3464,0.3444,0.3434,0.3419,0.3405,0.339,0.3385,0.3364,0.3366,0.3357,0.3347,0.3346,0.3343,0.3337,0.3342,0.3349,0.3349,0.3341,0.3341,0.3341,0,0.3587,0.356,0.3546,0.3536,0.3507,0.3501,0.3488,0.3467,0.3456,0.3438,0.3431,0.3411,0.3401,0.3386,0.3366,0.3364,0.3347,0.334,0.3337,0.3338,0.3334,0.3334,0.3339,0.3329,0.3329,0.3329,0.3329,0,0.359,0.358,0.3552,0.3543,0.353,0.351,0.3498,0.3484,0.3466,0.3453,0.3436,0.3424,0.34,0.3385,0.337,0.3354,0.335,0.3341,0.3337,0.3342,0.3343,0.3335,0.3334,0.3329,0.3329,0.3329,0.3329,0,0.3604,0.3585,0.3568,0.3542,0.3535,0.3527,0.3504,0.3494,0.3479,0.3463,0.3458,0.3434,0.3415,0.3395,0.337,0.336,0.3344,0.3339,0.3352,0.3349,0.3348,0.3348,0.3347,0.3345,0.3337,0.3337,0.3337,0,0.3607,0.3598,0.3571,0.3562,0.355,0.3535,0.3523,0.3503,0.3491,0.3467,0.346,0.3441,0.3424,0.3396,0.3375,0.3356,0.3349,0.335,0.3346,0.3352,0.3348,0.3349,0.3348,0.3351,0.3352,0.3352,0.3352,0,0.3614,0.3605,0.3589,0.357,0.3557,0.3541,0.3524,0.3517,0.3493,0.3481,0.3462,0.345,0.3424,0.3404,0.3382,0.3368,0.3356,0.3353,0.3352,0.3357,0.3364,0.3359,0.3354,0.3353,0.3353,0.3353,0.3353,0.3353,0.3622,0.3613,0.3593,0.3576,0.3561,0.3546,0.3535,0.3518,0.3503,0.348,0.3469,0.345,0.3429,0.3398,0.3385,0.3369,0.3365,0.3363,0.3362,0.3362,0.3363,0.3367,0.3365,0.3365,0.3365,0.3365,0.3365,0,0.3627,0.3613,0.3598,0.3575,0.3561,0.3551,0.3532,0.3521,0.3505,0.3487,0.3471,0.3449,0.343,0.3408,0.3387,0.3379,0.3373,0.3374,0.3374,0.3371,0.3368,0.3371,0.338,0.338,0.338,0.338,0.338,0.338,0.3629,0.3613,0.3602,0.3579,0.3565,0.3547,0.3536,0.3522,0.3507,0.3483,0.3468,0.3454,0.3434,0.3411,0.3393,0.3387,0.338,0.3383,0.3376,0.3373,0.3372,0.3371,0.3373,0.3382,0.3382,0.338,0.338,0.338]},{"header":{"parameterUnit":"m.s-1","parameterCategory":1,"la1":30.2991,"la2":30.254,"lo1":-89.0895,"lo2":-89.0444,"dy":0.0017,"dx":0.0017,"nx":28,"ny":28,"refTime":"2024-05-16T09:00:00:Z","depth":0,"parameterNumber":3,"parameterNumberName":"V-component_of_WINDS"},"data":[0,0,0,0,0,0,0,0,0,0,0,0,0,0,0,0,0,0,0,0,0,0,0,0,0,0,0,0,0,0,0,0,0,0,0,0,0,0,0,0,0,0,0,0,0,0,0,0,0,0,0,0,0,0,0,0,0,0,6.1391,6.1392,0,6.1445,6.1445,6.1446,6.1398,6.1396,6.1394,6.1393,6.1441,6.1444,6.1447,0,0,0,0,0,0,0,0,0,0,0,0,0,6.1241,6.1244,6.1391,6.1392,6.1393,6.1445,6.1445,6.1446,6.1399,6.1396,6.1394,6.1392,6.144,6.1444,6.1448,0,0,0,0,0,0,0,0,0,0,0,0,0,6.1302,6.1245,6.1391,6.1375,6.1374,6.1445,6.1445,6.1446,6.1399,6.1396,6.1393,6.1391,6.1439,6.1444,6.1448,6.1535,0,0,6.1462,6.1465,0,0,0,0,0,0,0,0,6.1298,6.1307,6.1377,6.1377,6.1376,6.1412,6.141,6.1476,6.14,6.139,6.1392,6.1389,6.1434,6.1438,6.1455,6.1537,6.1539,6.1463,6.1466,6.1468,6.1469,0,0,0,0,0,0,0,6.1294,6.1305,6.1412,6.1378,6.1377,6.1363,6.1369,6.1423,6.1427,6.139,6.1387,6.1394,6.1433,6.145,6.1455,6.154,6.1463,6.1467,6.147,6.1472,6.1695,6.1698,0,0,0,0,0,0,6.1293,6.1301,6.141,6.1414,6.1329,6.1368,6.1374,6.1403,6.1426,6.1427,6.1397,6.1392,6.1444,6.145,6.1457,6.156,6.1468,6.1472,6.1475,6.1692,6.1696,6.1699,0,0,0,0,0,0,6.129,6.1303,6.1408,6.1357,6.1369,6.1374,6.1407,6.1406,6.1423,6.1431,6.1431,6.1414,6.1442,6.145,6.1516,6.1561,6.1474,6.1478,6.1688,6.1693,6.1698,6.1766,0,0,0,0,0,0,6.1285,6.1302,6.1337,6.1358,6.1372,6.1469,6.141,6.1409,6.1432,6.1427,6.1448,6.1449,6.144,6.151,6.1521,6.1565,6.1482,6.1684,6.1691,6.1696,6.176,6.1772,6.1783,0,0,0,0,0,6.128,6.1352,6.1339,6.1352,6.1416,6.1471,6.1479,6.147,6.1436,6.147,6.1475,6.1448,6.1554,6.1517,6.1529,6.1576,6.1682,6.1689,6.1696,6.1754,6.177,6.1783,0,0,0,0,0,0,6.1334,6.1355,6.134,6.1422,6.1445,6.1463,6.1506,6.1487,6.1519,6.1512,6.1497,6.1502,6.1572,6.158,6.1538,6.166,6.1612,6.1622,6.1652,6.1667,6.1679,6.1675,6.1486,0,0,0,0,0,6.1356,6.1401,6.1416,6.1486,6.15,6.1501,6.1524,6.1515,6.1539,6.1548,6.1557,6.1579,6.1617,6.1643,6.1678,6.1761,6.1764,6.1799,6.181,6.182,6.1829,6.1872,6.1887,6.1723,6.1723,6.1723,0,0,6.14,6.1417,6.1446,6.1498,6.1515,6.1561,6.1509,6.156,6.1593,6.1555,6.1618,6.1626,6.1649,6.1723,6.1756,6.1732,6.1875,6.1829,6.1837,6.184,6.1881,6.1896,6.191,6.1728,6.1727,6.1726,0,0,6.1504,6.1523,6.1583,6.1602,6.163,6.163,6.1645,6.1666,6.167,6.1734,6.1706,6.1744,6.181,6.1828,6.1845,6.1957,6.1933,6.1968,6.203,6.2072,6.2085,6.2096,6.2135,6.215,6.1977,6.1977,6.1977,0,6.1555,6.1625,6.1616,6.1669,6.1692,6.1661,6.1721,6.1739,6.1776,6.1792,6.1765,6.1848,6.1861,6.1939,6.1966,6.1982,6.1996,6.1966,6.2084,6.2096,6.2106,6.2143,6.2158,6.1981,6.1981,6.198,6.198,0,6.1686,6.1735,6.178,6.1819,6.1847,6.1903,6.19,6.1929,6.1917,6.192,6.1984,6.1999,6.2037,6.2055,6.2044,6.2131,6.2115,6.2087,6.2038,6.2126,6.216,6.2175,6.1987,6.1986,6.1984,6.1983,0,0,6.1826,6.186,6.1876,6.1893,6.1922,6.1958,6.2012,6.2051,6.2075,6.2102,6.2145,6.2202,6.2176,6.2196,6.2186,6.2223,6.231,6.219,6.219,6.2211,6.2406,6.2427,6.2444,6.2294,6.2297,6.2299,6.2404,0,6.1931,6.2027,6.202,6.211,6.2154,6.2126,6.2173,6.2194,6.2198,6.2234,6.2237,6.2277,6.224,6.2252,6.2288,6.2292,6.2348,6.2284,6.2333,6.2335,6.2328,6.2462,6.2485,6.2583,6.2417,6.242,6.2421,0,6.2066,6.21,6.2195,6.2217,6.2235,6.2277,6.2312,6.2348,6.237,6.237,6.2393,6.2377,6.2429,6.2379,6.245,6.2407,6.2426,6.2431,6.2435,6.2438,6.2383,6.2469,6.2614,6.2629,6.2442,6.2441,6.2439,0,6.2158,6.2226,6.2292,6.2307,6.2334,6.2365,6.2377,6.2397,6.2421,6.2451,6.2466,6.2501,6.252,6.2546,6.2539,6.2504,6.2611,6.2561,6.2611,6.2611,6.2634,6.2633,6.2785,6.2648,6.2648,6.2648,6.2647,0,6.2276,6.2335,6.2334,6.2374,6.2439,6.2429,6.2493,6.2501,6.2519,6.2559,6.2536,6.2573,6.2562,6.2598,6.2592,6.2651,6.266,6.266,6.2658,6.2662,6.2662,6.2674,6.2667,6.2652,6.2651,6.265,6.2649,0,6.2389,6.2391,6.246,6.2481,6.2487,6.2534,6.255,6.2587,6.2589,6.264,6.2651,6.2653,6.2695,6.269,6.2736,6.2732,6.2806,6.2795,6.2799,6.2796,6.2846,6.2841,6.3011,6.3032,6.2882,6.2883,6.2885,0,6.2464,6.2509,6.2535,6.2561,6.2576,6.2618,6.2643,6.2635,6.2661,6.269,6.2723,6.2763,6.2795,6.2862,6.2867,6.2901,6.2891,6.2948,6.2896,6.2899,6.2891,6.2889,6.2893,6.2958,6.296,6.2961,6.2962,0,6.2597,6.2596,6.2633,6.2672,6.2702,6.2731,6.2758,6.278,6.2774,6.2804,6.2848,6.2872,6.292,6.2959,6.2992,6.3002,6.2981,6.2979,6.2992,6.2997,6.2997,6.2997,6.2826,6.2975,6.2974,6.2973,6.2972,6.2971,6.2693,6.2731,6.2756,6.2798,6.2818,6.2843,6.2879,6.2886,6.2923,6.2962,6.2955,6.3003,6.3023,6.3066,6.3079,6.3116,6.3095,6.3114,6.3119,6.3124,6.313,6.2992,6.3122,6.3121,6.3121,6.3121,6.312,0,6.2824,6.2839,6.2878,6.2917,6.295,6.2929,6.2957,6.2985,6.3029,6.3051,6.3083,6.3132,6.317,6.3178,6.3214,6.3241,6.3233,6.3251,6.3248,6.3251,6.3147,6.3131,6.3258,6.3258,6.3257,6.3257,6.3257,6.3257,6.2896,6.2961,6.2962,6.3035,6.3048,6.3097,6.3115,6.3137,6.3155,6.3212,6.3244,6.325,6.3265,6.3302,6.3335,6.3337,6.335,6.3373,6.337,6.3272,6.3258,6.3245,6.3231,6.3376,6.3376,6.3471,6.3472,6.3473]}]]